Location: Muenchen
(48.1800°N, 11.5800°E)
Time: 17:10:10
(UTC+02:00)

Vanguard 2 Rocket - Visible Passes

Search period start: 29 March 2017 00:00
Search period end: 08 April 2017 00:00
Orbit: 554 x 3328 km, 32.9° (Epoch: 27 March)

Date Brightness Start Highest point End Pass type
(mag) Time Alt. Az. Time Alt. Az. Time Alt. Az.
29 Mar 8.6 04:13:01 28° S 04:13:54 29° SSE 04:23:10 10° ESE visible
29 Mar 9.2 06:19:25 10° WSW 06:27:17 31° S 06:39:26 10° SE visible
30 Mar 9.1 03:17:01 20° SE 03:17:01 20° SE 03:21:43 10° ESE visible
30 Mar 8.8 05:22:50 19° SW 05:27:32 30° S 05:38:11 10° SE visible
31 Mar 8.5 04:26:51 27° S 04:28:03 28° S 04:36:55 10° ESE visible
01 Apr 8.9 03:30:55 21° SSE 03:30:55 21° SSE 03:35:46 10° ESE visible
01 Apr 8.9 05:36:44 15° SW 05:41:46 25° S 05:51:13 10° SE visible
02 Apr 8.6 04:40:50 23° SSW 04:42:17 25° S 04:50:21 10° SE visible
03 Apr 8.9 03:44:58 20° SSE 03:44:58 20° SSE 03:49:32 10° SE visible
03 Apr 9.0 05:50:48 11° SW 05:56:03 19° SSW 06:03:37 10° SSE visible
04 Apr 8.7 04:54:59 19° SSW 04:56:36 20° S 05:03:17 10° SSE visible
05 Apr 9.0 03:59:13 17° SSE 03:59:13 17° SSE 04:02:54 10° SE visible
05 Apr 9.2 06:06:50 10° SW 06:10:23 13° SSW 06:14:39 10° S visible
06 Apr 9.0 05:09:20 13° SSW 05:10:55 14° SSW 05:15:17 10° SSE visible
07 Apr 9.2 04:13:40 13° S 04:13:40 13° S 04:15:34 10° SSE visible
